| time (UTC) | temp C | wind direction | speed KPH | gust KPH | rain 1hr cm | rain 24hr cm | rain mn cm | humidity % | barometer mb |
| 20260904201016 | 35 | 251 | 4.8 | 8.0 | 0.00 | 0.00 | 0.00 | 55 | 1012.6 |
| 20260904200514 | 35 | 278 | 4.8 | 17.7 | 0.00 | 0.00 | 0.00 | 58 | 1012.7 |
| 20260904200010 | 35 | 208 | 8.0 | 14.5 | 0.00 | 0.00 | 0.00 | 57 | 1012.9 |
| 20260904195508 | 35 | 201 | 8.0 | 12.9 | 0.00 | 0.00 | 0.00 | 57 | 1012.8 |
| 20260904195008 | 35 | 237 | 8.0 | 11.3 | 0.00 | 0.00 | 0.00 | 56 | 1012.6 |
| 20260904194503 | 35 | 214 | 12.9 | 17.7 | 0.00 | 0.00 | 0.00 | 56 | 1012.5 |
| 20260904193957 | 35 | 188 | 8.0 | 14.5 | 0.00 | 0.00 | 0.00 | 58 | 1012.6 |
| 20260904193452 | 35 | 243 | 9.7 | 14.5 | 0.00 | 0.00 | 0.00 | 56 | 1012.5 |
| 20260904192948 | 35 | 174 | 9.7 | 17.7 | 0.00 | 0.00 | 0.00 | 57 | 1012.7 |
| 20260904192443 | 34 | 202 | 8.0 | 17.7 | 0.00 | 0.00 | 0.00 | 59 | 1012.6 |
| 20260904191940 | 34 | 172 | 8.0 | 12.9 | 0.00 | 0.00 | 0.00 | 59 | 1012.7 |
| 20260904191436 | 35 | 203 | 14.5 | 17.7 | 0.00 | 0.00 | 0.00 | 57 | 1012.6 |
| 20260904190932 | 35 | 199 | 14.5 | 24.1 | 0.00 | 0.00 | 0.00 | 58 | 1012.7 |
| 20260904190426 | 35 | 217 | 12.9 | 14.5 | 0.00 | 0.00 | 0.00 | 59 | 1012.6 |
| 20260904185923 | 35 | 249 | 8.0 | 11.3 | 0.00 | 0.00 | 0.00 | 59 | 1012.8 |
| 20260904185418 | 34 | 168 | 4.8 | 16.1 | 0.00 | 0.00 | 0.00 | 60 | 1012.8 |
| 20260904184913 | 34 | 277 | 12.9 | 14.5 | 0.00 | 0.00 | 0.00 | 59 | 1012.8 |
| 20260904184408 | 33 | 191 | 12.9 | 16.1 | 0.00 | 0.00 | 0.00 | 60 | 1013.0 |
| 20260904183903 | 34 | 221 | 8.0 | 20.9 | 0.00 | 0.00 | 0.00 | 61 | 1013.0 |
| 20260904183358 | 33 | 233 | 4.8 | 12.9 | 0.00 | 0.00 | 0.00 | 62 | 1013.1 |
| 20260904182854 | 34 | 146 | 8.0 | 12.9 | 0.00 | 0.00 | 0.00 | 61 | 1013.1 |
| 20260904182348 | 33 | 244 | 8.0 | 14.5 | 0.00 | 0.00 | 0.00 | 62 | 1013.0 |
| 20260904181843 | 33 | 175 | 11.3 | 12.9 | 0.00 | 0.00 | 0.00 | 61 | 1013.1 |
| 20260904181338 | 34 | 199 | 8.0 | 12.9 | 0.00 | 0.00 | 0.00 | 60 | 1013.0 |
| 20260904180834 | 33 | 286 | 6.4 | 14.5 | 0.00 | 0.00 | 0.00 | 61 | 1013.3 |
| 20260904180329 | 33 | 214 | 16.1 | 17.7 | 0.00 | 0.00 | 0.00 | 62 | 1013.3 |
| 20260904175828 | 33 | 274 | 8.0 | 14.5 | 0.00 | 0.00 | 0.00 | 60 | 1013.1 |
| 20260904175327 | 33 | 193 | 11.3 | 14.5 | 0.00 | 0.00 | 0.00 | 62 | 1013.3 |
| 20260904174827 | 33 | 184 | 11.3 | 14.5 | 0.00 | 0.00 | 0.00 | 64 | 1013.3 |
| 20260904174323 | 33 | 211 | 6.4 | 14.5 | 0.00 | 0.00 | 0.00 | 63 | 1013.1 |
| 20260904173819 | 33 | 218 | 11.3 | 14.5 | 0.00 | 0.00 | 0.00 | 62 | 1013.2 |
| 20260904173314 | 33 | 197 | 9.7 | 14.5 | 0.00 | 0.00 | 0.00 | 64 | 1013.3 |
| 20260904172810 | 33 | 301 | 8.0 | 12.9 | 0.00 | 0.00 | 0.00 | 63 | 1013.3 |
| 20260904172309 | 32 | 214 | 11.3 | 14.5 | 0.00 | 0.00 | 0.00 | 62 | 1013.4 |
| 20260904171804 | 32 | 206 | 8.0 | 16.1 | 0.00 | 0.00 | 0.00 | 63 | 1013.6 |
| 20260904171259 | 32 | 235 | 6.4 | 14.5 | 0.00 | 0.00 | 0.00 | 64 | 1013.5 |
| 20260904170755 | 32 | 215 | 11.3 | 16.1 | 0.00 | 0.00 | 0.00 | 63 | 1013.6 |
| 20260904170251 | 32 | 205 | 11.3 | 14.5 | 0.00 | 0.00 | 0.00 | 63 | 1013.5 |
| 20260904165750 | 32 | 186 | 9.7 | 14.5 | 0.00 | 0.00 | 0.00 | 64 | 1013.5 |
| 20260904165244 | 32 | 215 | 12.9 | 17.7 | 0.00 | 0.00 | 0.00 | 64 | 1013.6 |
| 20260904164738 | 32 | 228 | 11.3 | 14.5 | 0.00 | 0.00 | 0.00 | 64 | 1013.7 |
| 20260904164234 | 32 | 221 | 11.3 | 17.7 | 0.00 | 0.00 | 0.00 | 65 | 1013.7 |
| 20260904163730 | 31 | 219 | 8.0 | 14.5 | 0.00 | 0.00 | 0.00 | 67 | 1013.6 |
| 20260904163225 | 32 | 219 | 6.4 | 12.9 | 0.00 | 0.00 | 0.00 | 66 | 1013.5 |
| 20260904162724 | 32 | 224 | 4.8 | 12.9 | 0.00 | 0.00 | 0.00 | 67 | 1013.7 |
| 20260904162219 | 31 | 180 | 4.8 | 14.5 | 0.00 | 0.00 | 0.00 | 67 | 1013.7 |
| 20260904161715 | 31 | 218 | 6.4 | 12.9 | 0.00 | 0.00 | 0.00 | 66 | 1013.6 |
| 20260904161209 | 31 | 231 | 4.8 | 16.1 | 0.00 | 0.00 | 0.00 | 67 | 1013.7 |
| 20260904160705 | 31 | 226 | 8.0 | 12.9 | 0.00 | 0.00 | 0.00 | 69 | 1013.4 |
| 20260904160201 | 31 | 218 | 11.3 | 14.5 | 0.00 | 0.00 | 0.00 | 69 | 1013.6 |
| 20260904155655 | 31 | 193 | 8.0 | 11.3 | 0.00 | 0.00 | 0.00 | 70 | 1013.4 |
| 20260904155155 | 31 | 167 | 11.3 | 17.7 | 0.00 | 0.00 | 0.00 | 69 | 1013.5 |
| 20260904154653 | 31 | 225 | 6.4 | 12.9 | 0.00 | 0.00 | 0.00 | 71 | 1013.5 |
| 20260904154153 | 31 | 196 | 9.7 | 16.1 | 0.00 | 0.00 | 0.00 | 69 | 1013.4 |
| 20260904153648 | 31 | 207 | 8.0 | 16.1 | 0.00 | 0.00 | 0.00 | 69 | 1013.4 |
| 20260904153144 | 31 | 172 | 11.3 | 12.9 | 0.00 | 0.00 | 0.00 | 70 | 1013.3 |
| 20260904152640 | 30 | 208 | 6.4 | 11.3 | 0.00 | 0.00 | 0.00 | 70 | 1013.4 |
| 20260904152136 | 30 | 203 | 9.7 | 11.3 | 0.00 | 0.00 | 0.00 | 71 | 1013.2 |
| 20260904151630 | 30 | 215 | 9.7 | 16.1 | 0.00 | 0.00 | 0.00 | 72 | 1013.3 |
| 20260904151129 | 30 | 209 | 4.8 | 9.7 | 0.00 | 0.00 | 0.00 | 72 | 1013.4 |
| 20260904150625 | 30 | 122 | 9.7 | 16.1 | 0.00 | 0.00 | 0.00 | 72 | 1013.4 |
| 20260904150120 | 30 | 226 | 9.7 | 12.9 | 0.00 | 0.00 | 0.00 | 73 | 1013.4 |
| 20260904145618 | 29 | 172 | 11.3 | 17.7 | 0.00 | 0.00 | 0.00 | 75 | 1013.4 |
| 20260904145114 | 28 | 190 | 6.4 | 14.5 | 0.00 | 0.00 | 0.00 | 77 | 1013.3 |
| 20260904144609 | 28 | 192 | 8.0 | 12.9 | 0.00 | 0.00 | 0.00 | 76 | 1013.5 |
| 20260904144105 | 28 | 163 | 9.7 | 11.3 | 0.00 | 0.00 | 0.00 | 77 | 1013.5 |
| 20260904143601 | 28 | 227 | 8.0 | 11.3 | 0.00 | 0.00 | 0.00 | 76 | 1013.3 |
| 20260904143057 | 28 | 184 | 9.7 | 12.9 | 0.00 | 0.00 | 0.00 | 77 | 1013.3 |
| 20260904142554 | 27 | 222 | 8.0 | 12.9 | 0.00 | 0.00 | 0.00 | 79 | 1013.4 |
| 20260904142053 | 27 | 227 | 6.4 | 12.9 | 0.00 | 0.00 | 0.00 | 80 | 1013.3 |
| 20260904141549 | 27 | 229 | 9.7 | 12.9 | 0.00 | 0.00 | 0.00 | 81 | 1013.4 |
| 20260904141044 | 27 | 217 | 8.0 | 11.3 | 0.00 | 0.00 | 0.00 | 81 | 1013.4 |
| 20260904140540 | 27 | 195 | 6.4 | 9.7 | 0.00 | 0.00 | 0.00 | 81 | 1013.3 |
| 20260904140039 | 27 | 184 | 11.3 | 12.9 | 0.00 | 0.00 | 0.00 | 81 | 1013.4 |
| 20260904135539 | 26 | 195 | 8.0 | 11.3 | 0.00 | 0.00 | 0.00 | 82 | 1013.4 |
| 20260904135035 | 26 | 188 | 8.0 | 9.7 | 0.00 | 0.00 | 0.00 | 82 | 1013.4 |
| 20260904134530 | 26 | 230 | 6.4 | 9.7 | 0.00 | 0.00 | 0.00 | 82 | 1013.3 |
| 20260904134025 | 26 | 256 | 6.4 | 9.7 | 0.00 | 0.00 | 0.00 | 84 | 1013.3 |
| 20260904133520 | 26 | 279 | 3.2 | 4.8 | 0.00 | 0.00 | 0.00 | 84 | 1013.4 |
| 20260904133016 | 26 | 260 | 1.6 | 4.8 | 0.00 | 0.00 | 0.00 | 84 | 1013.1 |
| 20260904132515 | 25 | 160 | 8.0 | 9.7 | 0.00 | 0.00 | 0.00 | 84 | 1013.3 |
| 20260904132010 | 25 | 242 | 4.8 | 4.8 | 0.00 | 0.00 | 0.00 | 85 | 1013.0 |
| 20260904131505 | 25 | 269 | 3.2 | 4.8 | 0.00 | 0.00 | 0.00 | 85 | 1013.0 |
| 20260904131001 | 25 | 272 | 1.6 | 3.2 | 0.00 | 0.00 | 0.00 | 86 | 1013.3 |
| 20260904130459 | 25 | 260 | 1.6 | 3.2 | 0.00 | 0.00 | 0.00 | 86 | 1013.1 |
| 20260904125954 | 25 | 187 | 3.2 | 3.2 | 0.00 | 0.00 | 0.00 | 86 | 1013.0 |
| 20260904125451 | 25 | 252 | 1.6 | 3.2 | 0.00 | 0.00 | 0.00 | 87 | 1013.2 |
| 20260904124950 | 25 | 237 | 3.2 | 4.8 | 0.00 | 0.00 | 0.00 | 87 | 1013.0 |
| 20260904124446 | 25 | 221 | 3.2 | 3.2 | 0.00 | 0.00 | 0.00 | 87 | 1013.1 |
| 20260904123942 | 25 | 234 | 3.2 | 4.8 | 0.00 | 0.00 | 0.00 | 87 | 1012.8 |
| 20260904123436 | 25 | 242 | 3.2 | 3.2 | 0.00 | 0.00 | 0.00 | 87 | 1013.0 |
| 20260904122931 | 24 | 257 | 1.6 | 3.2 | 0.00 | 0.00 | 0.00 | 87 | 1012.7 |
| 20260904122426 | 24 | 274 | 1.6 | 3.2 | 0.00 | 0.00 | 0.00 | 87 | 1012.7 |
| 20260904121920 | 23 | 278 | 1.6 | 1.6 | 0.00 | 0.00 | 0.00 | 88 | 1012.9 |
| 20260904121417 | 23 | 255 | 3.2 | 3.2 | 0.00 | 0.00 | 0.00 | 88 | 1012.9 |
| 20260904120913 | 23 | 267 | 3.2 | 3.2 | 0.00 | 0.00 | 0.00 | 89 | 1012.8 |
| 20260904120409 | 23 | 264 | 1.6 | 3.2 | 0.00 | 0.00 | 0.00 | 89 | 1012.8 |
| 20260904115904 | 23 | 270 | 0.0 | 1.6 | 0.00 | 0.00 | 0.00 | 90 | 1012.9 |
| 20260904115359 | 23 | 265 | 1.6 | 3.2 | 0.00 | 0.00 | 0.00 | 90 | 1012.7 |
| 20260904114853 | 23 | 238 | 3.2 | 3.2 | 0.00 | 0.00 | 0.00 | 90 | 1012.8 |
| 20260904114348 | 23 | 244 | 3.2 | 3.2 | 0.00 | 0.00 | 0.00 | 89 | 1012.5 |
| 20260904113843 | 23 | 247 | 3.2 | 3.2 | 0.00 | 0.00 | 0.00 | 89 | 1012.5 |
| 20260904113342 | 23 | 228 | 4.8 | 4.8 | 0.00 | 0.00 | 0.00 | 90 | 1012.4 |
| 20260904112837 | 23 | 235 | 3.2 | 3.2 | 0.00 | 0.00 | 0.00 | 89 | 1012.5 |
| 20260904112333 | 23 | 235 | 3.2 | 4.8 | 0.00 | 0.00 | 0.00 | 89 | 1012.4 |
| 20260904111828 | 23 | 230 | 3.2 | 4.8 | 0.00 | 0.00 | 0.00 | 89 | 1012.5 |
| 20260904111324 | 23 | 256 | 1.6 | 4.8 | 0.00 | 0.00 | 0.00 | 89 | 1012.3 |
| 20260904110820 | 23 | 250 | 1.6 | 4.8 | 0.00 | 0.00 | 0.00 | 89 | 1012.2 |
| 20260904110319 | 23 | 257 | 1.6 | 3.2 | 0.00 | 0.00 | 0.00 | 89 | 1012.2 |
| 20260904105813 | 23 | 248 | 1.6 | 4.8 | 0.00 | 0.00 | 0.00 | 89 | 1012.2 |
| 20260904105308 | 23 | 244 | 3.2 | 4.8 | 0.00 | 0.00 | 0.00 | 89 | 1012.2 |
| 20260904104803 | 23 | 237 | 3.2 | 4.8 | 0.00 | 0.00 | 0.00 | 89 | 1012.3 |
| 20260904104259 | 23 | 242 | 3.2 | 4.8 | 0.00 | 0.00 | 0.00 | 89 | 1012.1 |
| 20260904103756 | 23 | 226 | 3.2 | 4.8 | 0.00 | 0.00 | 0.00 | 89 | 1012.1 |
| 20260904103255 | 23 | 234 | 3.2 | 4.8 | 0.00 | 0.00 | 0.00 | 89 | 1012.1 |
| 20260904102751 | 23 | 244 | 1.6 | 3.2 | 0.00 | 0.00 | 0.00 | 89 | 1012.1 |
| 20260904102246 | 23 | 245 | 1.6 | 3.2 | 0.00 | 0.00 | 0.00 | 89 | 1012.2 |
| 20260904101742 | 23 | 246 | 1.6 | 1.6 | 0.00 | 0.00 | 0.00 | 90 | 1012.0 |
| 20260904101238 | 23 | 246 | 0.0 | 0.0 | 0.00 | 0.00 | 0.00 | 90 | 1012.0 |
| 20260904100734 | 23 | 246 | 0.0 | 1.6 | 0.00 | 0.00 | 0.00 | 89 | 1012.0 |
| 20260904100230 | 23 | 245 | 1.6 | 3.2 | 0.00 | 0.00 | 0.00 | 89 | 1012.1 |
| 20260904095729 | 23 | 245 | 1.6 | 3.2 | 0.00 | 0.00 | 0.00 | 89 | 1012.0 |
| 20260904095224 | 23 | 245 | 3.2 | 3.2 | 0.00 | 0.00 | 0.00 | 89 | 1011.9 |
| 20260904094719 | 23 | 246 | 3.2 | 3.2 | 0.00 | 0.00 | 0.00 | 88 | 1012.0 |
| 20260904094219 | 23 | 249 | 1.6 | 3.2 | 0.00 | 0.00 | 0.00 | 88 | 1011.9 |
| 20260904093716 | 23 | 237 | 3.2 | 3.2 | 0.00 | 0.00 | 0.00 | 88 | 1011.8 |
| 20260904093215 | 23 | 228 | 4.8 | 4.8 | 0.00 | 0.00 | 0.00 | 88 | 1011.8 |
| 20260904092711 | 23 | 231 | 4.8 | 8.0 | 0.00 | 0.00 | 0.00 | 88 | 1011.7 |
| 20260904092207 | 23 | 234 | 3.2 | 4.8 | 0.00 | 0.00 | 0.00 | 88 | 1011.7 |
| 20260904091703 | 23 | 243 | 3.2 | 4.8 | 0.00 | 0.00 | 0.00 | 88 | 1011.7 |
| 20260904091158 | 23 | 230 | 4.8 | 4.8 | 0.00 | 0.00 | 0.00 | 88 | 1011.6 |
| 20260904090653 | 24 | 235 | 3.2 | 3.2 | 0.00 | 0.00 | 0.00 | 87 | 1011.4 |
| 20260904090149 | 24 | 227 | 3.2 | 3.2 | 0.00 | 0.00 | 0.00 | 87 | 1011.5 |
| 20260904085644 | 24 | 222 | 1.6 | 4.8 | 0.00 | 0.00 | 0.00 | 87 | 1011.5 |
| 20260904085143 | 23 | 207 | 3.2 | 4.8 | 0.00 | 0.00 | 0.00 | 87 | 1011.5 |
| 20260904084638 | 23 | 245 | 3.2 | 4.8 | 0.00 | 0.00 | 0.00 | 88 | 1011.4 |
| 20260904084135 | 23 | 213 | 3.2 | 4.8 | 0.00 | 0.00 | 0.00 | 88 | 1011.4 |
| 20260904083631 | 24 | 207 | 3.2 | 3.2 | 0.00 | 0.00 | 0.00 | 88 | 1011.6 |
| 20260904083127 | 24 | 227 | 3.2 | 3.2 | 0.00 | 0.00 | 0.00 | 87 | 1011.5 |
| 20260904082621 | 24 | 224 | 3.2 | 3.2 | 0.00 | 0.00 | 0.00 | 87 | 1011.6 |
| 20260904082117 | 24 | 219 | 3.2 | 4.8 | 0.00 | 0.00 | 0.00 | 87 | 1011.5 |
| 20260904081612 | 24 | 231 | 3.2 | 4.8 | 0.00 | 0.00 | 0.00 | 86 | 1011.4 |
| 20260904081107 | 24 | 199 | 4.8 | 4.8 | 0.00 | 0.00 | 0.00 | 86 | 1011.4 |
| 20260904080603 | 24 | 241 | 1.6 | 3.2 | 0.00 | 0.00 | 0.00 | 87 | 1011.5 |
| 20260904080059 | 24 | 246 | 3.2 | 3.2 | 0.00 | 0.00 | 0.00 | 87 | 1011.3 |
| 20260904075556 | 24 | 248 | 1.6 | 3.2 | 0.00 | 0.00 | 0.00 | 86 | 1011.5 |
| 20260904075055 | 25 | 250 | 1.6 | 4.8 | 0.00 | 0.00 | 0.00 | 85 | 1011.5 |
| 20260904074555 | 25 | 208 | 3.2 | 4.8 | 0.00 | 0.00 | 0.00 | 85 | 1011.6 |
| 20260904074050 | 25 | 181 | 4.8 | 4.8 | 0.00 | 0.00 | 0.00 | 84 | 1011.6 |
| 20260904073544 | 25 | 196 | 3.2 | 4.8 | 0.00 | 0.00 | 0.00 | 84 | 1011.6 |
| 20260904073041 | 25 | 252 | 3.2 | 4.8 | 0.00 | 0.00 | 0.00 | 84 | 1011.6 |
| 20260904072536 | 25 | 156 | 4.8 | 8.0 | 0.00 | 0.00 | 0.00 | 84 | 1011.5 |
| 20260904072031 | 25 | 178 | 3.2 | 4.8 | 0.00 | 0.00 | 0.00 | 84 | 1011.6 |
| 20260904071527 | 25 | 225 | 3.2 | 3.2 | 0.00 | 0.00 | 0.00 | 85 | 1011.7 |
| 20260904071022 | 25 | 241 | 1.6 | 3.2 | 0.00 | 0.00 | 0.00 | 85 | 1011.6 |
| 20260904070520 | 25 | 171 | 3.2 | 4.8 | 0.00 | 0.00 | 0.00 | 84 | 1011.6 |
| 20260904070015 | 25 | 186 | 3.2 | 4.8 | 0.00 | 0.00 | 0.00 | 83 | 1011.6 |
| 20260904065510 | 25 | 186 | 4.8 | 8.0 | 0.00 | 0.00 | 0.00 | 83 | 1011.8 |
| 20260904065007 | 25 | 161 | 4.8 | 4.8 | 0.00 | 0.00 | 0.00 | 84 | 1011.7 |
| 20260904064503 | 25 | 187 | 4.8 | 4.8 | 0.00 | 0.00 | 0.00 | 85 | 1011.6 |
| 20260904063957 | 25 | 188 | 4.8 | 4.8 | 0.00 | 0.00 | 0.00 | 85 | 1011.9 |
| 20260904063453 | 25 | 198 | 4.8 | 4.8 | 0.00 | 0.00 | 0.00 | 85 | 1011.8 |
| 20260904062948 | 25 | 196 | 3.2 | 4.8 | 0.00 | 0.00 | 0.00 | 85 | 1011.8 |
| 20260904062444 | 25 | 186 | 4.8 | 4.8 | 0.00 | 0.00 | 0.00 | 85 | 1012.0 |
| 20260904061940 | 25 | 204 | 4.8 | 4.8 | 0.00 | 0.00 | 0.00 | 85 | 1011.8 |
| 20260904061436 | 25 | 177 | 4.8 | 8.0 | 0.00 | 0.00 | 0.00 | 85 | 1011.8 |
| 20260904060932 | 25 | 193 | 3.2 | 4.8 | 0.00 | 0.00 | 0.00 | 85 | 1011.9 |
| 20260904060427 | 25 | 192 | 3.2 | 8.0 | 0.00 | 0.00 | 0.00 | 85 | 1011.8 |
| 20260904055923 | 25 | 189 | 4.8 | 8.0 | 0.00 | 0.00 | 0.00 | 85 | 1011.8 |
| 20260904055418 | 25 | 197 | 4.8 | 4.8 | 0.00 | 0.00 | 0.00 | 85 | 1012.0 |
| 20260904054914 | 25 | 177 | 4.8 | 4.8 | 0.00 | 0.00 | 0.00 | 85 | 1011.8 |
| 20260904054409 | 25 | 195 | 3.2 | 8.0 | 0.00 | 0.00 | 0.00 | 86 | 1011.8 |
| 20260904053900 | 25 | 181 | 4.8 | 4.8 | 0.00 | 0.00 | 0.00 | 86 | 1012.0 |
| 20260904053358 | 25 | 176 | 4.8 | 4.8 | 0.00 | 0.00 | 0.00 | 85 | 1012.0 |
| 20260904052854 | 25 | 175 | 4.8 | 8.0 | 0.00 | 0.00 | 0.00 | 85 | 1012.0 |
| 20260904052350 | 25 | 174 | 6.4 | 9.7 | 0.00 | 0.00 | 0.00 | 85 | 1012.0 |
| 20260904051846 | 25 | 169 | 4.8 | 4.8 | 0.00 | 0.00 | 0.00 | 84 | 1011.8 |
| 20260904051342 | 25 | 191 | 4.8 | 4.8 | 0.00 | 0.00 | 0.00 | 84 | 1011.9 |
| 20260904050836 | 25 | 202 | 3.2 | 4.8 | 0.00 | 0.00 | 0.00 | 84 | 1011.8 |
| 20260904050333 | 25 | 192 | 3.2 | 3.2 | 0.00 | 0.00 | 0.00 | 84 | 1011.9 |
| 20260904045828 | 25 | 178 | 4.8 | 4.8 | 0.00 | 0.00 | 0.00 | 84 | 1011.9 |
| 20260904045323 | 25 | 184 | 4.8 | 4.8 | 0.00 | 0.00 | 0.00 | 84 | 1011.9 |
| 20260904044822 | 25 | 219 | 3.2 | 4.8 | 0.00 | 0.00 | 0.00 | 83 | 1012.0 |
| 20260904044319 | 25 | 196 | 3.2 | 8.0 | 0.00 | 0.00 | 0.00 | 83 | 1011.9 |
| 20260904043815 | 26 | 197 | 3.2 | 4.8 | 0.00 | 0.00 | 0.00 | 83 | 1012.0 |
| 20260904043311 | 26 | 244 | 1.6 | 3.2 | 0.00 | 0.00 | 0.00 | 83 | 1011.8 |
| 20260904042806 | 26 | 245 | 1.6 | 3.2 | 0.00 | 0.00 | 0.00 | 83 | 1011.9 |
| 20260904042306 | 26 | 230 | 3.2 | 4.8 | 0.00 | 0.00 | 0.00 | 82 | 1011.8 |
| 20260904041802 | 26 | 185 | 3.2 | 4.8 | 0.00 | 0.00 | 0.00 | 82 | 1012.0 |
| 20260904041259 | 26 | 204 | 3.2 | 4.8 | 0.00 | 0.00 | 0.00 | 82 | 1011.9 |
| 20260904040753 | 26 | 239 | 3.2 | 4.8 | 0.00 | 0.00 | 0.00 | 83 | 1011.9 |
| 20260904040249 | 26 | 220 | 3.2 | 3.2 | 0.00 | 0.00 | 0.00 | 83 | 1011.9 |
| 20260904035745 | 26 | 191 | 3.2 | 3.2 | 0.00 | 0.00 | 0.00 | 83 | 1011.8 |
| 20260904035241 | 26 | 208 | 3.2 | 4.8 | 0.00 | 0.00 | 0.00 | 83 | 1011.9 |
| 20260904034739 | 26 | 197 | 3.2 | 3.2 | 0.00 | 0.00 | 0.00 | 82 | 1011.9 |
| 20260904034236 | 26 | 174 | 4.8 | 4.8 | 0.00 | 0.00 | 0.00 | 82 | 1011.8 |
| 20260904033731 | 26 | 201 | 3.2 | 3.2 | 0.00 | 0.00 | 0.00 | 81 | 1012.0 |
| 20260904033228 | 26 | 203 | 3.2 | 3.2 | 0.00 | 0.00 | 0.00 | 81 | 1012.0 |
| 20260904032723 | 26 | 241 | 1.6 | 3.2 | 0.00 | 0.00 | 0.00 | 80 | 1011.7 |
| 20260904032222 | 26 | 187 | 3.2 | 3.2 | 0.00 | 0.00 | 0.00 | 80 | 1011.7 |
| 20260904031717 | 26 | 205 | 3.2 | 3.2 | 0.00 | 0.00 | 0.00 | 80 | 1011.8 |
| 20260904031213 | 26 | 233 | 3.2 | 3.2 | 0.00 | 0.00 | 0.00 | 80 | 1011.8 |
| 20260904030708 | 27 | 224 | 3.2 | 3.2 | 0.00 | 0.00 | 0.00 | 80 | 1011.8 |
| 20260904030203 | 27 | 211 | 3.2 | 3.2 | 0.00 | 0.00 | 0.00 | 78 | 1011.8 |
| 20260904025700 | 27 | 218 | 3.2 | 4.8 | 0.00 | 0.00 | 0.00 | 78 | 1011.7 |
| 20260904025154 | 27 | 256 | 1.6 | 4.8 | 0.00 | 0.00 | 0.00 | 78 | 1011.7 |
| 20260904024650 | 27 | 247 | 3.2 | 4.8 | 0.00 | 0.00 | 0.00 | 77 | 1011.7 |
| 20260904024145 | 27 | 191 | 4.8 | 4.8 | 0.00 | 0.00 | 0.00 | 76 | 1011.7 |
| 20260904023641 | 27 | 183 | 4.8 | 8.0 | 0.00 | 0.00 | 0.00 | 75 | 1011.5 |
| 20260904023131 | 28 | 226 | 3.2 | 4.8 | 0.00 | 0.00 | 0.00 | 75 | 1011.6 |
| 20260904022631 | 28 | 221 | 3.2 | 4.8 | 0.00 | 0.00 | 0.00 | 74 | 1011.6 |
| 20260904022128 | 28 | 215 | 1.6 | 4.8 | 0.00 | 0.00 | 0.00 | 74 | 1011.6 |
| 20260904021624 | 28 | 229 | 3.2 | 8.0 | 0.00 | 0.00 | 0.00 | 74 | 1011.4 |
| 20260904021118 | 28 | 225 | 3.2 | 4.8 | 0.00 | 0.00 | 0.00 | 74 | 1011.6 |
| 20260904020614 | 28 | 214 | 4.8 | 4.8 | 0.00 | 0.00 | 0.00 | 73 | 1011.5 |
| 20260904020108 | 28 | 182 | 4.8 | 8.0 | 0.00 | 0.00 | 0.00 | 73 | 1011.3 |
| 20260904015603 | 28 | 180 | 4.8 | 4.8 | 0.00 | 0.00 | 0.00 | 73 | 1011.4 |
| 20260904015101 | 28 | 189 | 4.8 | 4.8 | 0.00 | 0.00 | 0.00 | 73 | 1011.1 |
| 20260904014555 | 28 | 205 | 4.8 | 8.0 | 0.00 | 0.00 | 0.00 | 72 | 1011.1 |
| 20260904014051 | 29 | 223 | 4.8 | 9.7 | 0.00 | 0.00 | 0.00 | 72 | 1011.3 |
| 20260904013548 | 29 | 200 | 4.8 | 8.0 | 0.00 | 0.00 | 0.00 | 71 | 1011.0 |
| 20260904013044 | 29 | 180 | 6.4 | 9.7 | 0.00 | 0.00 | 0.00 | 71 | 1011.0 |
| 20260904012538 | 29 | 210 | 4.8 | 8.0 | 0.00 | 0.00 | 0.00 | 72 | 1011.2 |
| 20260904012037 | 29 | 185 | 3.2 | 8.0 | 0.00 | 0.00 | 0.00 | 73 | 1011.3 |
| 20260904011532 | 29 | 210 | 3.2 | 4.8 | 0.00 | 0.00 | 0.00 | 73 | 1011.1 |
| 20260904011027 | 29 | 181 | 4.8 | 4.8 | 0.00 | 0.00 | 0.00 | 73 | 1011.0 |
| 20260904010524 | 29 | 212 | 3.2 | 4.8 | 0.00 | 0.00 | 0.00 | 74 | 1010.8 |
| 20260904010019 | 30 | 173 | 4.8 | 4.8 | 0.00 | 0.00 | 0.00 | 73 | 1010.8 |
| 20260904005514 | 30 | 184 | 4.8 | 4.8 | 0.00 | 0.00 | 0.00 | 73 | 1011.0 |
| 20260904005009 | 30 | 236 | 3.2 | 3.2 | 0.00 | 0.00 | 0.00 | 73 | 1010.9 |
| 20260904004505 | 30 | 219 | 3.2 | 4.8 | 0.00 | 0.00 | 0.00 | 72 | 1010.8 |
| 20260904004005 | 30 | 175 | 4.8 | 4.8 | 0.00 | 0.00 | 0.00 | 72 | 1011.0 |
| 20260904003501 | 30 | 216 | 3.2 | 3.2 | 0.00 | 0.00 | 0.00 | 72 | 1010.7 |
| 20260904002956 | 30 | 183 | 4.8 | 4.8 | 0.00 | 0.00 | 0.00 | 71 | 1010.8 |
| 20260904002452 | 30 | 211 | 3.2 | 3.2 | 0.00 | 0.00 | 0.00 | 70 | 1010.7 |
| 20260904001950 | 31 | 211 | 3.2 | 3.2 | 0.00 | 0.00 | 0.00 | 70 | 1010.8 |
| 20260904001447 | 31 | 200 | 3.2 | 3.2 | 0.00 | 0.00 | 0.00 | 68 | 1010.8 |
| 20260904000941 | 31 | 272 | 1.6 | 4.8 | 0.00 | 0.00 | 0.00 | 68 | 1010.8 |
| 20260904000440 | 31 | 180 | 4.8 | 4.8 | 0.00 | 0.00 | 0.00 | 66 | 1010.8 |
| 20260903235936 | 32 | 202 | 4.8 | 8.0 | 0.00 | 0.00 | 0.00 | 65 | 1010.8 |
| 20260903235432 | 32 | 187 | 4.8 | 8.0 | 0.00 | 0.00 | 0.00 | 64 | 1010.7 |
| 20260903234926 | 32 | 181 | 4.8 | 11.3 | 0.00 | 0.00 | 0.00 | 63 | 1010.7 |
| 20260903234422 | 32 | 177 | 6.4 | 9.7 | 0.00 | 0.00 | 0.00 | 63 | 1010.7 |
| 20260903233918 | 32 | 199 | 6.4 | 11.3 | 0.00 | 0.00 | 0.00 | 63 | 1010.7 |
| 20260903233413 | 33 | 222 | 3.2 | 9.7 | 0.00 | 0.00 | 0.00 | 62 | 1010.6 |
| 20260903232908 | 33 | 199 | 3.2 | 9.7 | 0.00 | 0.00 | 0.00 | 61 | 1010.7 |
| 20260903232403 | 33 | 178 | 8.0 | 9.7 | 0.00 | 0.00 | 0.00 | 61 | 1010.7 |
| 20260903231902 | 33 | 190 | 8.0 | 12.9 | 0.00 | 0.00 | 0.00 | 60 | 1010.6 |
| 20260903231357 | 33 | 271 | 3.2 | 8.0 | 0.00 | 0.00 | 0.00 | 60 | 1010.8 |
| 20260903230853 | 33 | 166 | 11.3 | 16.1 | 0.00 | 0.00 | 0.00 | 58 | 1010.8 |
| 20260903230348 | 33 | 169 | 6.4 | 9.7 | 0.00 | 0.00 | 0.00 | 59 | 1010.6 |
| 20260903225844 | 33 | 191 | 4.8 | 11.3 | 0.00 | 0.00 | 0.00 | 59 | 1010.5 |
| 20260903225340 | 34 | 230 | 4.8 | 8.0 | 0.00 | 0.00 | 0.00 | 59 | 1010.5 |
| 20260903224836 | 34 | 181 | 8.0 | 9.7 | 0.00 | 0.00 | 0.00 | 58 | 1010.7 |
| 20260903224332 | 34 | 163 | 6.4 | 14.5 | 0.00 | 0.00 | 0.00 | 59 | 1010.4 |
| 20260903223827 | 34 | 160 | 6.4 | 9.7 | 0.00 | 0.00 | 0.00 | 58 | 1010.4 |
| 20260903223326 | 34 | 166 | 6.4 | 12.9 | 0.00 | 0.00 | 0.00 | 56 | 1010.4 |
| 20260903222821 | 34 | 175 | 4.8 | 11.3 | 0.00 | 0.00 | 0.00 | 56 | 1010.5 |
| 20260903222320 | 35 | 134 | 9.7 | 16.1 | 0.00 | 0.00 | 0.00 | 55 | 1010.5 |
| 20260903221815 | 35 | 182 | 8.0 | 14.5 | 0.00 | 0.00 | 0.00 | 57 | 1010.6 |
| 20260903221314 | 35 | 179 | 11.3 | 12.9 | 0.00 | 0.00 | 0.00 | 57 | 1010.8 |
| 20260903220812 | 35 | 147 | 6.4 | 11.3 | 0.00 | 0.00 | 0.00 | 57 | 1010.9 |
| 20260903220301 | 35 | 161 | 9.7 | 12.9 | 0.00 | 0.00 | 0.00 | 56 | 1010.8 |
| 20260903215759 | 35 | 197 | 9.7 | 11.3 | 0.00 | 0.00 | 0.00 | 56 | 1011.0 |
| 20260903215256 | 35 | 217 | 8.0 | 14.5 | 0.00 | 0.00 | 0.00 | 55 | 1011.0 |
| 20260903214753 | 35 | 263 | 4.8 | 9.7 | 0.00 | 0.00 | 0.00 | 55 | 1010.8 |
| 20260903214244 | 35 | 207 | 12.9 | 16.1 | 0.00 | 0.00 | 0.00 | 54 | 1010.9 |
| 20260903213738 | 35 | 179 | 8.0 | 14.5 | 0.00 | 0.00 | 0.00 | 53 | 1011.0 |
| 20260903213234 | 35 | 162 | 11.3 | 24.1 | 0.00 | 0.00 | 0.00 | 53 | 1011.1 |
| 20260903212730 | 35 | 166 | 14.5 | 16.1 | 0.00 | 0.00 | 0.00 | 55 | 1011.2 |
| 20260903212226 | 35 | 120 | 9.7 | 14.5 | 0.00 | 0.00 | 0.00 | 54 | 1011.2 |
| 20260903211724 | 35 | 196 | 8.0 | 17.7 | 0.00 | 0.00 | 0.00 | 53 | 1011.2 |
| 20260903211222 | 35 | 225 | 12.9 | 16.1 | 0.00 | 0.00 | 0.00 | 55 | 1011.3 |
| 20260903210717 | 35 | 209 | 8.0 | 12.9 | 0.00 | 0.00 | 0.00 | 54 | 1011.1 |
| 20260903210213 | 35 | 256 | 8.0 | 11.3 | 0.00 | 0.00 | 0.00 | 54 | 1011.2 |
| 20260903205707 | 35 | 167 | 4.8 | 11.3 | 0.00 | 0.00 | 0.00 | 57 | 1011.3 |
| 20260903205206 | 35 | 153 | 8.0 | 9.7 | 0.00 | 0.00 | 0.00 | 56 | 1011.3 |
| 20260903204702 | 35 | 244 | 4.8 | 12.9 | 0.00 | 0.00 | 0.00 | 56 | 1011.4 |
| 20260903204158 | 35 | 150 | 6.4 | 11.3 | 0.00 | 0.00 | 0.00 | 55 | 1011.3 |
| 20260903203653 | 34 | 264 | 8.0 | 12.9 | 0.00 | 0.00 | 0.00 | 57 | 1011.6 |
| 20260903203148 | 35 | 198 | 9.7 | 12.9 | 0.00 | 0.00 | 0.00 | 56 | 1011.7 |
| 20260903202643 | 35 | 219 | 6.4 | 11.3 | 0.00 | 0.00 | 0.00 | 58 | 1011.5 |
| 20260903202138 | 35 | 148 | 8.0 | 12.9 | 0.00 | 0.00 | 0.00 | 57 | 1011.7 |
| 20260903201638 | 35 | 252 | 8.0 | 12.9 | 0.00 | 0.00 | 0.00 | 57 | 1011.7 |